Location: ???????
(55.4362°N, 38.1183°E)
Time: 14:45:29
(UTC+00:00)

Cosmos 372 Rocket - Pass Details

Date: 26 October 2021
Orbit: 738 x 768 km, 74.1° (Epoch: 04 December)

Event Time Altitude Azimuth Distance (km) Brightness Sun altitude
Rises 16:31:10 0° 285° (WNW) 3,178 8.7 -21.7°
Reaches altitude 10° 16:35:07 10° 316° (NW) 2,258 7.2 -22.2°
Maximum altitude 16:37:09 12° 340° (NNW) 2,110 6.6 -22.5°
Drops below altitude 10° 16:39:10 10° 3° (N) 2,262 6.5 -22.8°
Enters shadow 16:41:36 - 24° (NNE) 2,760 6.8 -23.1°
